Weather History for KLGA - July, 2012

Change the Weather History Date:

Sunday, July 29, 2012

  Actual Average Record
Temperature  
Mean Temperature 75 °F 78 °F  
Max Temperature 80 °F 86 °F 97 °F (1949)
Min Temperature 70 °F 70 °F 62 °F (1984)
Degree Days  
Heating Degree Days 0 0  
Month to date heating degree days 0 0  
Since 1 June heating degree days 11 16  
Since 1 July heating degree days 0 0  
Cooling Degree Days 10 13  
Month to date cooling degree days 467 362  
Year to date cooling degree days 845 659  
Since 1 June cooling degree days 722 593  
Growing Degree Days 25 (Base 50)    
Moisture  
Dew Point 66 °F    
Average Humidity 76    
Maximum Humidity 90    
Minimum Humidity 62    
Precipitation  
Precipitation T in 0.17 in 3.45 in (1980)
Month to date precipitation 3.77 4.18  
Year to date precipitation 20.66 25.81  
Snow  
Snow 0.00 in 0.00 in - ()
Month to date snowfall 0.0 0.0  
Since 1 July snowfall 0.0 0.0  
Snow Depth 0.00 in    
Sea Level Pressure  
Sea Level Pressure 29.98 in    
Wind  
Wind Speed 7 mph (NE)    
Max Wind Speed 13 mph    
Max Gust Speed 22 mph    
Visibility 10 miles    
Events Rain , Thunderstorm    
T = Trace of Precipitation, MM = Missing Value Source: NWS Daily Summary

Daily Weather History Graph

Daily Weather History Graph

Search for Another Location

Airport or City:

Trip Planner

Search our weather history database for the weather conditions in past years. The results will help you decide how hot, cold, wet, or windy it might be!

Date:

Astronomy

Jul. 29, 2012 Rise Set
Actual Time 5:49 AM EDT 8:13 PM EDT
Civil Twilight 5:18 AM EDT 8:44 PM EDT
Nautical Twilight 4:40 AM EDT 9:22 PM EDT
Astronomical Twilight 3:57 AM EDT 10:05 PM EDT
Moon 5:17 PM EDT (7/29) 2:00 AM EDT (7/29)
Length of Visible Light 15h 26m
Length of Day
14h 24m
Waxing Gibbous, 85% of the Moon is Illuminated
Jul 29
Waxing Gibbous
Aug 1
Full
Aug 9
Last Quarter
Aug 17
New
Aug 24
First Quarter

Hourly Weather History & Observations

Time (EDT) Temp. Dew Point Humidity Pressure Visibility Wind Dir Wind Speed Gust Speed Precip Events Conditions
12:51 AM 70.0 °F 66.9 °F 90% 29.93 in 10.0 mi NE 5.8 mph - N/A   Mostly Cloudy
1:51 AM 70.0 °F 66.9 °F 90% 29.94 in 10.0 mi NE 4.6 mph - N/A   Mostly Cloudy
1:58 AM 71.6 °F 66.2 °F 83% 29.93 in 10.0 mi NNE 4.6 mph - N/A   Overcast
2:51 AM 71.1 °F 66.0 °F 84% 29.94 in 10.0 mi NE 5.8 mph - N/A   Overcast
3:51 AM 70.0 °F 66.0 °F 87% 29.92 in 10.0 mi NE 6.9 mph - N/A   Overcast
4:51 AM 70.0 °F 66.0 °F 87% 29.92 in 10.0 mi NNE 8.1 mph - N/A   Mostly Cloudy
5:51 AM 70.0 °F 66.0 °F 87% 29.94 in 10.0 mi NE 6.9 mph - N/A   Overcast
6:51 AM 71.1 °F 66.9 °F 87% 29.96 in 10.0 mi NE 9.2 mph - N/A   Overcast
7:51 AM 71.1 °F 66.0 °F 84% 29.97 in 10.0 mi ENE 9.2 mph - N/A   Overcast
8:37 AM 71.6 °F 66.2 °F 83% 29.98 in 10.0 mi NE 10.4 mph - N/A   Overcast
8:51 AM 71.6 °F 66.2 °F 83% 29.98 in 10.0 mi NE 10.4 mph - N/A   Overcast
9:51 AM 73.0 °F 66.0 °F 79% 29.99 in 10.0 mi NE 9.2 mph - N/A   Mostly Cloudy
10:40 AM 73.4 °F 66.2 °F 78% 29.99 in 10.0 mi NE 9.2 mph - N/A   Overcast
10:51 AM 73.0 °F 64.9 °F 76% 29.99 in 10.0 mi ENE 9.2 mph - N/A   Overcast
11:19 AM 73.4 °F 64.4 °F 73% 29.99 in 10.0 mi NE 9.2 mph - N/A   Overcast
11:51 AM 73.9 °F 66.0 °F 76% 30.00 in 10.0 mi NE 9.2 mph - N/A   Overcast
12:04 PM 73.4 °F 64.4 °F 73% 30.00 in 10.0 mi ENE 9.2 mph - N/A   Overcast
12:51 PM 73.9 °F 64.9 °F 73% 30.00 in 10.0 mi NE 6.9 mph - N/A   Overcast
1:51 PM 75.9 °F 66.0 °F 71% 29.99 in 10.0 mi ENE 5.8 mph - N/A   Mostly Cloudy
2:51 PM 78.1 °F 66.0 °F 66% 29.99 in 10.0 mi NE 6.9 mph - N/A   Mostly Cloudy
3:51 PM 79.0 °F 64.0 °F 60% 29.98 in 10.0 mi ENE 8.1 mph - N/A   Mostly Cloudy
4:25 PM 78.8 °F 64.4 °F 61% 29.98 in 10.0 mi ENE 11.5 mph - 0.00 in Rain , Thunderstorm Light Thunderstorms and Rain
4:51 PM 75.9 °F 66.9 °F 74% 29.99 in 10.0 mi ENE 9.2 mph - 0.00 in Rain , Thunderstorm Light Thunderstorms and Rain
5:42 PM 75.2 °F 64.4 °F 69% 29.98 in 10.0 mi ENE 6.9 mph - 0.00 in   Mostly Cloudy
5:51 PM 75.9 °F 64.0 °F 67% 29.98 in 10.0 mi ENE 6.9 mph - 0.00 in   Mostly Cloudy
6:51 PM 78.1 °F 64.9 °F 64% 29.99 in 10.0 mi ENE 6.9 mph - N/A   Mostly Cloudy
7:51 PM 77.0 °F 64.9 °F 66% 30.00 in 10.0 mi ENE 6.9 mph - N/A   Mostly Cloudy
8:51 PM 75.9 °F 66.9 °F 74% 30.01 in 10.0 mi Variable 3.5 mph - N/A   Mostly Cloudy
9:51 PM 75.9 °F 66.9 °F 74% 30.03 in 10.0 mi SSE 4.6 mph - N/A   Mostly Cloudy
10:51 PM 73.9 °F 68.0 °F 82% 30.04 in 10.0 mi ENE 8.1 mph - N/A   Scattered Clouds
11:51 PM 73.0 °F 66.9 °F 81% 30.05 in 10.0 mi ENE 9.2 mph - N/A   Mostly Cloudy